Location: Unspecified
(47.9110°N, 14.3980°E)
Time: 21:53:00
(UTC+00:00)

IRIDIUM 106 - Pass Details

Date: 06 August 2020
Orbit: 776 x 779 km, 86.4° (Epoch: 21 September)

Event Time Altitude Azimuth Distance (km) Brightness Sun altitude
Rises 19:27:17 0° 175° (S) 3,249 7.2 -9.0°
Reaches altitude 10° 19:29:38 10° 174° (S) 2,326 6.4 -9.4°
Maximum altitude 19:34:48 72° 91° (E) 821 4.3 -10.0°
Drops below altitude 10° 19:40:02 10° 7° (N) 2,344 7.3 -10.7°
Sets 19:42:24 0° 6° (N) 3,276 8.1 -11.0°
